Location: Cerda�ola
(41.4919°N, 2.1403°E)
Time: 18:49:12
(UTC+00:00)

Lacrosse 4 Rocket - Pass Details

Date: 17 August 2020
Orbit: 544 x 615 km, 68.0° (Epoch: 01 October)

Event Time Altitude Azimuth Distance (km) Brightness Sun altitude
Exits shadow 20:07:50 13° 73° (ENE) 1,721 3.5 -14.4°
Drops below altitude 10° 20:08:30 10° 66° (ENE) 1,879 3.7 -14.5°
Sets 20:11:19 0° 46° (NE) 2,767 4.8 -15.0°
